Time,TemperatureF,DewpointF,PressureIn,WindDirection,WindDirectionDegrees,WindSpeedMPH,WindSpeedGustMPH,Humidity,HourlyPrecipIn,Conditions,Clouds,dailyrainin,SolarRadiationWatts/m^2,SoftwareType,DateUTC
2013-01-31 05:01:00,37.0,37.0,-100.00,WSW,254,14.0,23.0,100,0.00,,,0.05,0.000000,,2013-01-31 13:01:00,
2013-01-31 06:01:00,37.0,37.0,-100.00,West,267,16.0,23.0,100,0.00,,,0.05,0.000000,,2013-01-31 14:01:00,
2013-01-31 06:32:00,37.0,37.0,-100.00,West,267,16.0,23.0,100,0.00,,,0.05,0.000000,,2013-01-31 14:32:00,
2013-01-31 06:42:00,37.0,37.0,-100.00,West,267,16.0,23.0,100,0.00,,,0.05,0.000000,,2013-01-31 14:42:00,
2013-01-31 06:52:00,37.0,37.0,-100.00,West,267,16.0,23.0,100,0.00,,,0.05,0.000000,,2013-01-31 14:52:00,
2013-01-31 07:01:00,37.0,37.0,-100.00,West,268,18.0,23.0,100,0.00,,,0.05,0.000000,,2013-01-31 15:01:00,
2013-01-31 07:32:00,37.0,37.0,-100.00,West,268,18.0,23.0,100,0.00,,,0.05,0.000000,,2013-01-31 15:32:00,
2013-01-31 07:42:00,37.0,37.0,-100.00,West,268,18.0,23.0,100,0.00,,,0.05,0.000000,,2013-01-31 15:42:00,
2013-01-31 07:52:00,37.0,37.0,-100.00,West,268,18.0,23.0,100,0.00,,,0.05,0.000000,,2013-01-31 15:52:00,
2013-01-31 08:01:00,36.0,36.0,-100.00,WSW,253,15.0,23.0,100,0.00,,,0.05,0.000000,,2013-01-31 16:01:00,
2013-01-31 08:33:00,36.0,36.0,-100.00,WSW,253,15.0,23.0,100,0.00,,,0.05,0.000000,,2013-01-31 16:33:00,
2013-01-31 08:42:00,36.0,36.0,-100.00,WSW,253,15.0,23.0,100,0.00,,,0.05,0.000000,,2013-01-31 16:42:00,
2013-01-31 08:52:00,36.0,36.0,-100.00,WSW,253,15.0,23.0,100,0.00,,,0.05,0.000000,,2013-01-31 16:52:00,
2013-01-31 09:01:00,37.0,37.0,-100.00,SW,225,16.0,23.0,100,0.00,,,0.05,4.000000,,2013-01-31 17:01:00,
2013-01-31 09:32:00,37.0,37.0,-100.00,SW,225,16.0,23.0,100,0.00,,,0.05,4.000000,,2013-01-31 17:32:00,
2013-01-31 09:44:00,37.0,37.0,-100.00,SW,225,16.0,23.0,100,0.00,,,0.05,4.000000,,2013-01-31 17:44:00,
2013-01-31 09:53:00,37.0,37.0,-100.00,SW,225,16.0,23.0,100,0.00,,,0.05,4.000000,,2013-01-31 17:53:00,
2013-01-31 10:01:00,38.0,38.0,-100.00,SW,219,16.0,23.0,100,0.00,,,0.03,101.000000,,2013-01-31 18:01:00,
2013-01-31 10:32:00,38.0,38.0,-100.00,SW,219,16.0,23.0,100,0.00,,,0.03,101.000000,,2013-01-31 18:32:00,
2013-01-31 10:43:00,38.0,38.0,-100.00,SW,219,16.0,23.0,100,0.00,,,0.03,101.000000,,2013-01-31 18:43:00,
2013-01-31 10:52:00,38.0,38.0,-100.00,SW,219,16.0,23.0,100,0.00,,,0.03,101.000000,,2013-01-31 18:52:00,
2013-01-31 11:01:00,38.0,38.0,-100.00,SSW,209,17.0,23.0,100,0.00,,,0.02,131.000000,,2013-01-31 19:01:00,
2013-01-31 11:33:00,38.0,38.0,-100.00,SSW,209,17.0,23.0,100,0.00,,,0.02,131.000000,,2013-01-31 19:33:00,
2013-01-31 11:42:00,38.0,38.0,-100.00,SSW,209,17.0,23.0,100,0.00,,,0.02,131.000000,,2013-01-31 19:42:00,
2013-01-31 11:52:00,38.0,38.0,-100.00,SSW,209,17.0,23.0,100,0.00,,,0.02,131.000000,,2013-01-31 19:52:00,
2013-01-31 12:01:00,36.0,36.0,-100.00,SW,216,16.0,23.0,100,0.01,,,0.02,97.000000,,2013-01-31 20:01:00,
2013-01-31 12:22:00,36.0,36.0,-100.00,SW,216,16.0,23.0,100,0.01,,,0.02,97.000000,,2013-01-31 20:22:00,
2013-01-31 12:32:00,36.0,36.0,-100.00,SW,216,16.0,23.0,100,0.01,,,0.02,97.000000,,2013-01-31 20:32:00,
2013-01-31 12:42:00,36.0,36.0,-100.00,SW,216,16.0,23.0,100,0.01,,,0.02,97.000000,,2013-01-31 20:42:00,
2013-01-31 12:52:00,36.0,36.0,-100.00,SW,216,16.0,23.0,100,0.01,,,0.02,97.000000,,2013-01-31 20:52:00,
2013-01-31 13:01:00,36.0,36.0,-100.00,SSW,206,15.0,23.0,100,0.00,,,0.02,127.000000,,2013-01-31 21:01:00,
2013-01-31 13:32:00,36.0,36.0,-100.00,SSW,206,15.0,23.0,100,0.00,,,0.02,127.000000,,2013-01-31 21:32:00,
2013-01-31 13:42:00,36.0,36.0,-100.00,SSW,206,15.0,23.0,100,0.00,,,0.02,127.000000,,2013-01-31 21:42:00,
2013-01-31 13:52:00,36.0,36.0,-100.00,SSW,206,15.0,23.0,100,0.00,,,0.02,127.000000,,2013-01-31 21:52:00,
2013-01-31 14:01:00,37.0,37.0,-100.00,SSW,209,15.0,22.0,100,0.00,,,0.01,184.000000,,2013-01-31 22:01:00,
2013-01-31 14:33:00,37.0,37.0,-100.00,SSW,209,15.0,22.0,100,0.00,,,0.01,184.000000,,2013-01-31 22:33:00,
2013-01-31 14:42:00,37.0,37.0,-100.00,SSW,209,15.0,22.0,100,0.00,,,0.01,184.000000,,2013-01-31 22:42:00,
2013-01-31 14:52:00,37.0,37.0,-100.00,SSW,209,15.0,22.0,100,0.00,,,0.01,184.000000,,2013-01-31 22:52:00,
2013-01-31 15:01:00,37.0,37.0,-100.00,SSW,208,15.0,23.0,100,0.00,,,0.01,152.000000,,2013-01-31 23:01:00,
2013-01-31 15:32:00,37.0,37.0,-100.00,SSW,208,15.0,23.0,100,0.00,,,0.01,152.000000,,2013-01-31 23:32:00,
2013-01-31 15:42:00,37.0,37.0,-100.00,SSW,208,15.0,23.0,100,0.00,,,0.01,152.000000,,2013-01-31 23:42:00,
2013-01-31 15:52:00,37.0,37.0,-100.00,SSW,208,15.0,23.0,100,0.00,,,0.01,152.000000,,2013-01-31 23:52:00,
2013-01-31 16:01:00,39.0,39.0,-100.00,SSW,210,17.0,23.0,100,0.00,,,0.01,113.000000,,2013-02-01 00:01:00,
2013-01-31 16:22:00,39.0,39.0,-100.00,SSW,210,17.0,23.0,100,0.00,,,0.01,113.000000,,2013-02-01 00:22:00,
2013-01-31 16:32:00,39.0,39.0,-100.00,SSW,210,17.0,23.0,100,0.00,,,0.01,113.000000,,2013-02-01 00:32:00,
2013-01-31 16:42:00,39.0,39.0,-100.00,SSW,210,17.0,23.0,100,0.00,,,0.01,113.000000,,2013-02-01 00:42:00,
2013-01-31 16:52:00,39.0,39.0,-100.00,SSW,210,17.0,23.0,100,0.00,,,0.01,113.000000,,2013-02-01 00:52:00,
2013-01-31 17:01:00,38.0,38.0,-100.00,SSW,213,18.0,24.0,100,0.00,,,0.01,70.000000,,2013-02-01 01:01:00,
2013-01-31 17:32:00,38.0,38.0,-100.00,SSW,213,18.0,24.0,100,0.00,,,0.01,70.000000,,2013-02-01 01:32:00,
2013-01-31 17:42:00,38.0,38.0,-100.00,SSW,213,18.0,24.0,100,0.00,,,0.01,70.000000,,2013-02-01 01:42:00,
2013-01-31 17:52:00,38.0,38.0,-100.00,SSW,213,18.0,24.0,100,0.00,,,0.01,70.000000,,2013-02-01 01:52:00,
2013-01-31 18:01:00,38.0,38.0,-100.00,SSW,211,17.0,24.0,100,0.01,,,0.02,21.000000,,2013-02-01 02:01:00,
2013-01-31 18:32:00,38.0,38.0,-100.00,SSW,211,17.0,24.0,100,0.01,,,0.02,21.000000,,2013-02-01 02:32:00,
2013-01-31 18:42:00,38.0,38.0,-100.00,SSW,211,17.0,24.0,100,0.01,,,0.02,21.000000,,2013-02-01 02:42:00,
2013-01-31 18:52:00,38.0,38.0,-100.00,SSW,211,17.0,24.0,100,0.01,,,0.02,21.000000,,2013-02-01 02:52:00,
2013-01-31 19:01:00,40.0,40.0,-100.00,WSW,239,16.0,22.0,100,0.00,,,0.02,1.000000,,2013-02-01 03:01:00,
2013-01-31 19:33:00,40.0,40.0,-100.00,WSW,239,16.0,22.0,100,0.00,,,0.02,1.000000,,2013-02-01 03:33:00,
2013-01-31 19:42:00,40.0,40.0,-100.00,WSW,239,16.0,22.0,100,0.00,,,0.02,1.000000,,2013-02-01 03:42:00,
2013-01-31 19:52:00,40.0,40.0,-100.00,WSW,239,16.0,22.0,100,0.00,,,0.02,1.000000,,2013-02-01 03:52:00,
2013-01-31 20:01:00,40.0,40.0,-100.00,WSW,245,14.0,22.0,100,0.00,,,0.02,0.000000,,2013-02-01 04:01:00,
2013-01-31 20:32:00,40.0,40.0,-100.00,WSW,245,14.0,22.0,100,0.00,,,0.02,0.000000,,2013-02-01 04:32:00,
2013-01-31 20:42:00,40.0,40.0,-100.00,WSW,245,14.0,22.0,100,0.00,,,0.02,0.000000,,2013-02-01 04:42:00,
2013-01-31 20:52:00,40.0,40.0,-100.00,WSW,245,14.0,22.0,100,0.00,,,0.02,0.000000,,2013-02-01 04:52:00,
2013-01-31 21:01:00,40.0,40.0,-100.00,SW,235,10.0,21.0,100,0.00,,,0.02,0.000000,,2013-02-01 05:01:00,
2013-01-31 21:32:00,40.0,40.0,-100.00,SW,235,10.0,21.0,100,0.00,,,0.02,0.000000,,2013-02-01 05:32:00,
2013-01-31 21:42:00,40.0,40.0,-100.00,SW,235,10.0,21.0,100,0.00,,,0.02,0.000000,,2013-02-01 05:42:00,
2013-01-31 21:52:00,40.0,40.0,-100.00,SW,235,10.0,21.0,100,0.00,,,0.02,0.000000,,2013-02-01 05:52:00,
2013-01-31 22:01:00,40.0,40.0,-100.00,SW,226,9.0,16.0,100,0.00,,,0.02,0.000000,,2013-02-01 06:01:00,
2013-01-31 22:32:00,40.0,40.0,-100.00,SW,226,9.0,16.0,100,0.00,,,0.02,0.000000,,2013-02-01 06:32:00,
2013-01-31 22:42:00,40.0,40.0,-100.00,SW,226,9.0,16.0,100,0.00,,,0.02,0.000000,,2013-02-01 06:42:00,
2013-01-31 22:52:00,40.0,40.0,-100.00,SW,226,9.0,16.0,100,0.00,,,0.02,0.000000,,2013-02-01 06:52:00,
2013-01-31 23:01:00,38.0,38.0,-100.00,SW,223,11.0,18.0,100,0.01,,,0.03,0.000000,,2013-02-01 07:01:00,
2013-01-31 23:32:00,38.0,38.0,-100.00,SW,223,11.0,18.0,100,0.01,,,0.03,0.000000,,2013-02-01 07:32:00,
2013-01-31 23:42:00,38.0,38.0,-100.00,SW,223,11.0,18.0,100,0.01,,,0.03,0.000000,,2013-02-01 07:42:00,
2013-01-31 23:52:00,38.0,38.0,-100.00,SW,223,11.0,18.0,100,0.01,,,0.03,0.000000,,2013-02-01 07:52:00,